Tracking 21076 objects as of 9-Aug-2020
HD Live streaming from Space Station
objects crossing your sky now
Track the most recent launched group of Starlink satellites

COSMOS 614

Track COSMOS 614 now!
10-day predictions
COSMOS 614 is classified as:


NORAD ID: 6965
Int'l Code: 1973-098A
Perigee: 753.0 km
Apogee: 784.8 km
Inclination: 74.1 °
Period: 100.1 minutes
Semi major axis: 7139 km
RCS: 2.1152 m2 (large)
Launch date: December 4, 1973
Source: Commonwealth of Independent States (former USSR) (CIS)
Launch site: PLESETSK MISSILE AND SPACE COMPLEX (PKMTR)
aabbcc
Your satellite tracking list
Your tracking list is empty




NASA's NSSDC Master Catalog

Two Line Element Set (TLE):
1  6965U 73098A   20221.91646540 -.00000002 +00000-0 +76806-5 0  9990
2  6965 074.0575 017.7264 0022265 123.4008 236.9281 14.39015387446677
Source of the keplerian elements: AFSPC